sat.trackr.live / text

‹ back to catalog

STARLINK-36092

NORAD 66869 · 2025-281X

PAYLOAD ACTIVE UNKNOWN

§ Identity

Operator
Country
US
Launch date
2025-12-02
Launch site
AFETR
Launch vehicle
Mass (kg)
RCS (m²)

Purposes: comms

External: N2YO · Heavens-Above · Gunter

§ Orbital elements

Epoch: 2026-05-24T19:17:08.347776Z

Period
94.27 min
Inclination
43.0015°
Eccentricity
0.0001459
Mean motion
15.27586798 rev/d
Perigee alt
482.0 km
Apogee alt
484.0 km
Semi-major
6,861.2 km
B*
1.0668e-3
RAAN
273.8400°
Arg perigee
276.1026°
Mean anomaly
83.9660°
Rev number
2,781

§ Raw data

STARLINK-360921 66869U 25281X   26144.80356884  .00029217  00000+0  10668-2 0  99952 66869  43.0015 273.8400 0001459 276.1026  83.9660 15.27586798 27815

JSON: /api/v1/satellites/66869 · /tle

For live sub-satellite position, see the globe view (requires WebGL).

§ Visibility from observer

Set your observer location to see the next 7 days of passes ≥ 10°. The values pass through the URL so the page stays shareable.

No JS? Fill the form by hand. The geolocation button needs JavaScript.